Hourly Data Report for October 04, 2017

All times are specified in Local Standard Time (LST). Add 1 hour to adjust for Daylight Saving Time where and when it is observed.

NAKUSP CS
BRITISH COLUMBIA

50°16'09.930" N
117°49'01.540" W
512.10 m
1145297
71216
WNP

Download Data

Hourly Data (October 2017)
Hourly Data Report for October 4, 2017
Temp Definition
°C
Dew Point Temp Definition
°C
Rel Hum Definition
%
Wind Dir Definition
10's deg

Wind Spd Definition
km/h
Visibility Definition
km
Stn Press Definition
kPa
Hmdx Definition


Wind Chill Definition


Weather Definition


TIME
00:00 1.6 -1.0 83 4 3   96.56     LegendNANA
01:00 1.6 -0.9 84 11 3   96.59     LegendNANA
02:00 0.7 -1.2 87 7 5   96.60     LegendNANA
03:00 1.2 -0.7 87 6 4   96.61     LegendNANA
04:00 0.5 -0.9 90 4 4   96.58     LegendNANA
05:00 0.8 -1.0 88 7 4   96.55     LegendNANA
06:00 0.2 -0.9 92 7 4   96.56     LegendNANA
07:00 2.0 -0.8 82 7 4   96.56     LegendNANA
08:00 7.0 1.4 68 19 2   96.51     LegendNANA
09:00 6.6 2.2 74 1 2   96.47     LegendNANA
10:00 8.5 0.8 58 25 4   96.40     LegendNANA
11:00 11.2 1.1 50 25 4   96.31     LegendNANA
12:00 11.8 0.9 47 26 4   96.23     LegendNANA
13:00 13.2 -0.2 40 23 4   96.16     LegendNANA
14:00 12.6 1.2 46 25 3   96.11     LegendNANA
15:00 13.5 2.1 46 24 1   96.10     LegendNANA
16:00 12.5 2.5 51   0   96.07     LegendNANA
17:00 11.3 1.6 51 7 4   96.05     LegendNANA
18:00 7.3 2.6 72 2 2   96.11     LegendNANA
19:00 5.9 1.3 72 7 4   96.15     LegendNANA
20:00 5.9 2.5 79 34 2   96.18     LegendNANA
21:00 4.6 0.7 76 7 4   96.20     LegendNANA
22:00 3.9 1.2 82 5 2   96.21     LegendNANA
23:00 3.6 1.4 86 2 2   96.22     LegendNANA

Notes on Data Quality.

Legend

  • E = Estimated
  • M = Missing
  • NA = Not Available
  • ‡ = Partner data that is not subject to review by the National Climate Archives
Date modified: